Regional Weather Roundup
Issued by NWS Cleveland, OH

Home | Current Version | Previous Version | Graphics & Text | Print | Product List | Glossary On
Versions: 1 2 3 4 5 6 7 8 9 10 11 12 13 14 15 16 17 18 19 20 21 22 23 24 25 26 27 28 29 30 31 32 33 34 35 36 37 38 39 40 41 42 43 44 45 46 47 48 49 50
000
ASUS41 KCLE 312310
RWRCLE
OHIO REGIONAL WEATHER ROUNDUP
NATIONAL WEATHER SERVICE WILMINGTON, OH
700 PM EDT MON AUG 31 2015

NOTE: "FAIR" INDICATES FEW OR NO CLOUDS BELOW 12,000 FEET WITH NO
SIGNIFICANT WEATHER AND/OR OBSTRUCTIONS TO VISIBILITY.

OHZ001>008-015>018-024>027-034-035-043-044-010000-
   NORTHWEST OHIO

CITY           SKY/WX    TMP DP  RH WIND       PRES   REMARKS
DEFIANCE       SUNNY     85  68  56 NW3       30.04S
FINDLAY        SUNNY     83  70  64 SW5       30.04S
TOLEDO EXPRESS SUNNY     84  67  56 SW5       30.03S
TOLEDO EXEC    SUNNY     85  66  53 W8        30.04S
LIMA           MOSUNNY   83  68  60 SW5       30.06S
$$

OHZ009>014-019>023-028>033-038-089-010000-
   NORTHEAST OHIO

CITY           SKY/WX    TMP DP  RH WIND       PRES   REMARKS
CLE-HOPKINS    MOSUNNY   80  67  64 N6        30.07S
CLE-LAKEFRONT  SUNNY     78  68  71 NE5       30.05R
CUY CO. ARPT   MOSUNNY   81  68  65 N7        30.07S
LORAIN-ELYRIA  SUNNY     81  68  64 NE3       30.06S
ASHTABULA      CLEAR     78  67  68 NW5       30.08S
AKRON-CANTON   MOSUNNY   85  65  51 W3        30.07R
WOOSTER        SUNNY     82  67  60 MISG      30.07S
MANSFIELD      SUNNY     84  66  54 CALM      30.08S
YOUNGSTOWN     PTCLDY    82  67  60 N12       30.07R
$$

OHZ042-051>053-060>062-070>072-077>081-010000-
  SOUTHWEST OHIO

CITY           SKY/WX    TMP DP  RH WIND       PRES   REMARKS
CINC-COVINGTON MOSUNNY   84  65  52 SW7       30.07S
CINC-LUNKEN    MOSUNNY   81  70  69 S3        30.06R
HAMILTON       SUNNY     85  68  56 VRB3      30.07S
DAYTON         PTSUNNY   76  72  87 SW6       30.09R
WRIGHT-PAT AFB PTSUNNY   79  69  73 S3        30.07S
DAYTON GENERAL MOSUNNY   84  65  52 NW7       30.07S
WILMINGTON     SUNNY     81  67  62 S6        30.08R
$$

OHZ036-037-039>041-045>050-054>059-063>069-073>076-082>088-010000-
  CENTRAL AND SOUTHEAST OHIO

CITY           SKY/WX    TMP DP  RH WIND       PRES   REMARKS
COLUMBUS       PTSUNNY   82  67  60 VRB7      30.06R THUNDER
OSU AIRPORT    MOSUNNY   79  68  69 SE7       30.07R
BOLTON FIELD   SUNNY     81  72  74 S5        30.07S
RICKENBACK AFB SUNNY     80  66  62 S5        30.06S
NEWARK         MOSUNNY   82  69  64 W5        30.06S
MARION         SUNNY     82  65  56 W5        30.06S
LANCASTER      SUNNY     80  67  64 SW6       30.07S
ZANESVILLE     NOT AVBL
NEW PHILLY     MOSUNNY   83  67  58 CALM      30.06S
$$



USA.gov is the U.S. government's official web portal to all federal, state and local government web resources and services.